STARLINK-33921 (65934 NORAD) Tracking and Keplerian Element Data

This shows tracking and keplerian element data for the satellite.

Feedback or suggestion? Click here.




ElementValue
Catalog65934
NameSTARLINK-33921
Epoch Orbit1135
Epoch Day354.22342338
Epoch Year2025
RAAN174.6287
Inclination53.1593
Eccentricity0.0001356
Argument of Perigee83.9639
Mean Anonmoly276.1517
Mean Motion15.30198189
Decay Rate0.00017867
L11 65934U 25225AA 25354.22342338 .00017867 00000+0 61397-3 0 9996
L22 65934 53.1593 174.6287 0001356 83.9639 276.1517 15.30198189 11357



Live tracking and technical data element details for STARLINK-33921 (NORAD 65934). STARLINK-33921 can be tracked NOW for your location showing map with azimuth and elevation plus other details from your city location.







IsCatalogInMostPopularTable: catalog: 65934, numindb: 3
Update: records affected: 1



GetName: 65934 STARLINK-33921

Hit Count: updated at: Mon, 09 Feb 2026 08:34:58 GMT